This demonstration page uses our WeatherBlox Daily Observations layout. Learn more.

Left ArrowRight Arrow

39.92423, -83.80882

Hourly Observations for March 9, 2019

Temp ( °F °C ) Dew Point ( °F °C ) Humidity (%) Winds ( mph kmh ) Pressure ( in mb ) Visibility ( mi km ) Precip ( " mm )
12:17 am 00:17 Clear with Mist and Fog 27 -3 27 -3 100 100 E 3 6 30.2 1023 0.75 1.207005 0 0
12:26 am 00:26 Clear with Mist and Fog 27 -3 27 -3 100 100 Calm 30.2 1023 1.25 2.011675 0 0
12:38 am 00:38 Clear with Mist and Fog 27 -3 27 -3 100 100 ENE 5 7 30.2 1023 0.75 1.207005 0 0
12:42 am 00:42 Clear with Freezing Fog 25 -4 25 -4 100 100 Calm 30.2 1023 0.25 0.402335 0 0
12:56 am 00:56 Clear with Mist and Fog 26 -3.3 26 -3.3 100 100 Calm 30.18 1022 1 1.60934 0 0
1:04 am 01:04 Clear with Mist and Fog 27 -3 27 -3 100 100 Calm 30.21 1023 1.75 2.816345 0 0
1:09 am 01:09 Mostly Cloudy with Freezing Fog 27 -3 27 -3 100 100 E 3 6 30.2 1023 0.5 0.80467 0 0
1:13 am 01:13 Mostly Cloudy with Freezing Fog 27 -3 27 -3 100 100 E 5 7 30.2 1023 0.25 0.402335 0 0
1:23 am 01:23 Mostly Cloudy with Freezing Fog 23 -5 23 -5 100 100 ENE 7 11 30.21 1023 0.25 0.402335 0 0
1:32 am 01:32 Mostly Cloudy with Freezing Fog 21 -6 21 -6 100 100 ENE 8 13 30.21 1023 0.5 0.80467 0 0
1:42 am 01:42 Mostly Cloudy with Mist and Fog 23 -5 23 -5 100 100 ENE 7 11 30.21 1023 1 1.60934 0 0
1:49 am 01:49 Mostly Clear with Mist and Fog 23 -5 23 -5 100 100 E 3 6 30.21 1023 1.5 2.41401 0 0
1:56 am 01:56 Clear with Mist and Fog 24 -4.4 24 -4.4 100 100 E 5 7 30.17 1022 1.5 2.41401 0 0
2:26 am 02:26 Partly Cloudy with Mist and Fog 25 -4 25 -4 100 100 ESE 5 7 30.2 1023 2 3.21868 0 0
2:32 am 02:32 Mostly Cloudy with Mist and Fog 27 -3 27 -3 100 100 ESE 6 9 30.2 1023 3 4.82802 0 0
2:56 am 02:56 Cloudy with Mist and Fog 29 -1.7 29 -1.7 100 100 ESE 9 15 30.16 1021 3 4.82802 0 0
3:07 am 03:07 Cloudy with Mist and Fog 28 -2 28 -2 100 100 ESE 7 11 30.18 1022 3 4.82802 0 0
3:56 am 03:56 Cloudy with Mist and Fog 30 -1.1 30 -1.1 100 100 ESE 9 15 30.15 1021 4 6.43736 0 0
4:51 am 04:51 Cloudy with Mist and Fog 30 -1 30 -1 100 100 ESE 13 20 30.17 1022 6 9.65604 0 0
4:56 am 04:56 Cloudy with Mist and Fog 30 -1.1 30 -1.1 100 100 ESE 13 20 30.15 1021 6 9.65604 0 0
5:56 am 05:56 Cloudy 30 -1.1 30 -1.1 100 100 ESE 12 19 30.16 1021 7 11.26538 0 0
6:56 am 06:56 Cloudy with Mist and Fog 30 -1.1 30 -1.1 100 100 E 14 22 30.15 1021 4 6.43736 0 0
7:17 am 07:17 Cloudy with Mist and Fog 30 -1 30 -1 100 100 E 14 22 30.17 1022 3 4.82802 0 0
7:42 am 07:42 Cloudy with Mist and Fog 30 -1 30 -1 100 100 E 16 26 30.16 1021 2.5 4.02335 0 0
7:56 am 07:56 Cloudy with Mist and Fog 30 -1.1 30 -1.1 100 100 ESE 15 24 30.15 1021 2.5 4.02335 0 0
8:14 am 08:14 Cloudy with Mist and Fog 30 -1 30 -1 100 100 E 13 20 30.17 1022 1.75 2.816345 0 0
8:24 am 08:24 Cloudy with Mist and Fog 30 -1 30 -1 100 100 E 18 30 30.16 1021 2 3.21868 0 0
8:53 am 08:53 Cloudy with Mist and Fog 30 -1 30 -1 100 100 ESE 14 22 30.18 1022 3 4.82802 0 0
8:56 am 08:56 Cloudy with Mist and Fog 31 -0.6 31 -0.6 100 100 ESE 15 24 30.15 1021 3 4.82802 0 0
9:56 am 09:56 Cloudy with Mist and Fog 32 0 32 0 100 100 E 18 30 30.12 1020 5 8.0467 0 0
10:41 am 10:41 Cloudy with Mist and Fog 34 1 32 0 93 93 E 18 30 30.08 1019 5 8.0467 0 0
10:56 am 10:56 Cloudy with Mist and Fog 34 1.1 33 0.6 97 97 E 14 22 30.07 1018 6 9.65604 0 0
11:44 am 11:44 Cloudy 36 2 34 1 93 93 E 16 26 30.06 1018 9 14.48406 0 0
11:56 am 11:56 Cloudy 35 1.7 34 1.1 96 96 E 18 30 30.05 1018 10 16.0934 0 0
12:56 pm 12:56 Cloudy 37 2.8 35 1.7 93 93 ESE 16 26 30.01 1016 10 16.0934 0 0
1:25 pm 13:25 Cloudy 39 4 36 2 87 87 ESE 17 28 29.98 1015 10 16.0934 0 0
1:56 pm 13:56 Cloudy 40 4.4 37 2.8 89 89 E 20 31 29.93 1014 10 16.0934 0 0
2:13 pm 14:13 Cloudy 41 5 37 3 87 87 ESE 21 33 29.9 1013 10 16.0934 0 0
2:56 pm 14:56 Cloudy 41 5 38 3.3 89 89 E 21 33 29.87 1012 10 16.0934 0 0
3:56 pm 15:56 Cloudy with Rain 41 5 39 3.9 93 93 ESE 20 31 29.8 1009 8 12.87472 0.04 1.016
5:05 pm 17:05 Cloudy with Rain 43 6 41 5 93 93 SE 13 20 29.79 1009 4 6.43736 0.08 2.032
5:28 pm 17:28 Cloudy with Rain 43 6 43 6 100 100 ESE 22 35 29.75 1007 4 6.43736 0.32 8.128
5:47 pm 17:47 Cloudy with Rain 45 7 43 6 93 93 ESE 21 33 29.72 1007 5 8.0467 0.41 10.414
5:56 pm 17:56 Cloudy with Heavy Rain 44 6.7 44 6.7 100 100 ESE 23 37 29.72 1006 5 8.0467 0.46 11.684
6:17 pm 18:17 Cloudy with Rain 45 7 45 7 100 100 ESE 26 43 29.68 1005 7 11.26538 0.08 2.032
6:56 pm 18:56 Cloudy with Rain 45 7.2 45 7.2 100 100 ESE 24 39 29.63 1003 5 8.0467 0.23 5.842
7:56 pm 19:56 Cloudy with Light Rain 48 8.9 48 8.9 100 100 SSE 23 37 29.61 1003 10 16.0934 0.27 6.858
8:49 pm 20:49 Cloudy 46 8 46 8 100 100 SE 20 31 29.59 1002 10 16.0934 0.12 3.048
8:56 pm 20:56 Cloudy 47 8.3 47 8.3 100 100 SE 17 28 29.6 1002 10 16.0934 0.12 3.048
9:24 pm 21:24 Cloudy 48 9 46 8 94 94 SE 12 19 29.58 1002 10 16.0934 0 0
9:46 pm 21:46 Cloudy 46 8 46 8 100 100 SE 12 19 29.58 1002 10 16.0934 0 0
9:56 pm 21:56 Mostly Cloudy 47 8.3 47 8.3 100 100 SE 13 20 29.58 1002 10 16.0934 0 0
10:06 pm 22:06 Partly Cloudy 48 9 48 9 100 100 SE 9 15 29.59 1002 10 16.0934 0 0
10:56 pm 22:56 Mostly Cloudy 52 11.1 51 10.6 97 97 S 10 17 29.58 1002 10 16.0934 0 0
11:26 pm 23:26 Mostly Cloudy 54 12 52 11 94 94 S 14 22 29.56 1001 10 16.0934 0 0
11:56 pm 23:56 Cloudy 55 12.8 54 12.2 96 96 S 13 20 29.58 1002 10 16.0934 0 0

Powered by AerisWeather